KINEIS-1A

Last updated on Mon Dec 15 2025 00:02:49 GMT+0000 (Coordinated Universal Time)

1 60084U 24114F 25348.34706598 .00001370 00000+0 18747-3 0 9994 2 60084 97.9999 8.3391 0003769 29.0635 331.0786 14.80148826 80048
UTC large
Height (km)
Speed (km/s)
/
Latitude / Longitude
Inclination (degrees)
Orbital Period (minutes)
Azimuth
Elevation
Range (km)
Doppler Factor

Next 0 passes for location: London (51.5072 / 0.1276)

Sorry there are no passes over London.